Regional Weather Roundup
Issued by NWS Portland, ME

Current Version | Previous Version | Text Only | Print | Product List | Glossary Off
Versions: 1 2 3 4 5 6 7 8 9 10 11 12 13 14 15 16 17 18 19 20 21 22 23 24 25 26 27 28 29 30 31 32 33 34 35 36 37 38 39 40 41 42 43 44 45 46 47 48 49 50
000 ASUS41 KGYX 200705 RWRGYX WEATHER ROUNDUP FOR MAINE AND NEW HAMPSHIRE NATIONAL WEATHER SERVICE GRAY ME 200 AM EST SAT JAN 20 2018 MEZ002-005-006-010-012-015-018-020-021-024-026-027-029-200800- MAINE CITY SKY/WX TMP DP RH WIND PRES REMARKS PORTLAND FAIR 30 22 72 SW12 29.78F SANFORD FAIR 27 22 81 SW8 29.78F BAR HARBOR CLOUDY 29 26 89 S9 29.77F WISCASSET CLOUDY 29 24 82 S3 29.78F ROCKLAND CLOUDY 30 25 81 SW6 29.78F FRYEBURG FAIR 26 22 84 VRB5 29.73F LEWISTONAUBURN CLOUDY 27 22 81 S7 29.75F AUGUSTA CLOUDY 27 21 78 S6 29.74F WATERVILLE CLOUDY 27 23 85 S6 29.68F BANGOR CLOUDY 28 23 81 S9 29.74F GREENVILLE NOT AVBL MILLINOCKET CLOUDY 27 22 81 VRB6 29.68F HOULTON CLOUDY 26 22 84 S9 29.65F PRESQUE ISLE CLOUDY 26 21 81 S13 29.62F WCI 15 FRENCHVILLE CLOUDY 23 20 88 S15G23 29.51F WCI 10 CARIBOU CLOUDY 25 20 81 S9 29.59F $$ NHZ002-005-008-009-011-012-014-200800- NEW HAMPSHIRE CITY SKY/WX TMP DP RH WIND PRES REMARKS PORTSMOUTH CLOUDY 29 20 68 SW6 29.78F ROCHESTER FAIR 27 22 81 VRB3 29.77F NASHUA FAIR 27 21 78 VRB3 29.81S MANCHESTER CLOUDY 29 19 66 S9 29.78S CONCORD FAIR 27 21 78 S6 29.78S LACONIA FAIR 26 21 81 W6 29.75F PLYMOUTH FAIR 22 20 95 CALM 29.75F BERLIN FAIR 19 17 92 CALM 29.66S FOG WHITEFIELD MOCLDY 24 21 88 CALM 29.67S JAFFREY FAIR 26 19 74 SW5 29.76S KEENE FAIR 20 18 92 CALM 29.79S LEBANON FAIR 27 21 78 SW6 29.72F MT WASHINGTON PTCLDY 21 12 68 W63 N/A WCI -3 $$ VTZ005-007-008-200800- VERMONT CITY SKY/WX TMP DP RH WIND PRES REMARKS ST JOHNSBURY N/A 27 22 81 MISG 29.67F MONTPELIER CLOUDY 27 21 78 S9 29.69S BURLINGTON MOCLDY 32 20 61 S17G25 29.67S $$ MAZ007-012-024-CTZ003-RIZ002-NYZ038-NYZ072-200800- SOUTHERN NEW ENGLAND AND NY CITY SKY/WX TMP DP RH WIND PRES REMARKS BOSTON MOCLDY 32 20 61 SW13 29.82F WORCESTER FAIR 30 16 56 SW20G26 29.77F WCI 17 NANTUCKET FAIR 33 30 88 SW9 29.92F PROVIDENCE FAIR 31 23 72 S8 29.86F HARTFORD CLOUDY 30 21 69 S10 29.83F ALBANY CLOUDY 28 17 63 S9 29.80S NEW YORK CITY FAIR 38 19 46 SW12 29.90F $$ ANZ081-ANZ082-ANZ150-NHZ014-MEZ023>029-200800- COASTAL MARINE OBSERVATIONS STATION/POSITION TIME TEMP WIND PRES WAVE AIR SEA DIR/SP/G HT/PER (UTC) (F) (DEG/KT/KT) (MB) (FT/S) MOUNT DESERT ROC 0600 35 210/ 17/ 19 1008.9F MATINICUS ROCK 0600 34 230/ 19/ 21 1008.4F ISLE OF SHOALS 0600 33 220/ 19/ 22 1009.5F JEFFREYS LEDGE 0636 43 N/A 4/ 4 GEORGES BANK BUO 0550 40 58 1013.4 8/ 8 $$ .............KEY.............. WCI - WIND CHILL TC - TEMPERATURE IN CELSIUS VSB - VISIBILITY IN MILES HX - HEAT INDEX FAIR- INDICATES FEW OR NO CLOUDS BELOW 12,000 FT, WITH NO SIGNIFICANT WEATHER AND/OR OBSTRUCTIONS TO VISIBILITY.

USA.gov is the U.S. government's official web portal to all federal, state and local government web resources and services.